• en Suisse
  • Liste des pays
  • À 7 jours
  • Température de l'eau
  • Carte satellitaire
  • Carte météo
  • Widgets météo
  • user-avatar
    Se connecter

    Météo par heure à Serhiivka

    Ce jour, 24 Avril, Mardi

    Heure Température Précipitation Vent Pression Humidité
    00:00 +5°C° 0 mm 1 m/s 750 mmHg 61%
    01:00 +4°C° 0 mm 1 m/s 750 mmHg 62%
    02:00 +4°C° 0 mm 1 m/s 750 mmHg 63%
    03:00 +4°C° 0 mm 1 m/s 750 mmHg 64%
    04:00 +4°C° 0 mm 1 m/s 750 mmHg 66%
    05:00 +4°C° 0 mm 1 m/s 751 mmHg 68%
    06:00 +4°C° 0 mm 1 m/s 751 mmHg 70%
    07:00 +5°C° 0 mm 2 m/s 751 mmHg 64%
    08:00 +7°C° 0 mm 2 m/s 751 mmHg 58%
    09:00 +9°C° 0 mm 2 m/s 751 mmHg 51%
    10:00 +10°C° 0 mm 3 m/s 751 mmHg 47%
    11:00 +12°C° 0 mm 3 m/s 750 mmHg 42%
    12:00 +13°C° 0 mm 3 m/s 750 mmHg 38%
    13:00 +14°C° 0 mm 3 m/s 750 mmHg 37%
    14:00 +16°C° 0 mm 3 m/s 749 mmHg 37%
    15:00 +17°C° 0 mm 3 m/s 749 mmHg 37%
    16:00 +16°C° 0 mm 3 m/s 749 mmHg 42%
    17:00 +16°C° 0 mm 2 m/s 748 mmHg 47%
    18:00 +16°C° 0 mm 1 m/s 748 mmHg 52%
    19:00 +14°C° 0,5 mm 1 m/s 748 mmHg 59%
    20:00 +13°C° 0,5 mm 2 m/s 748 mmHg 67%
    21:00 +11°C° 0,5 mm 3 m/s 748 mmHg 75%
    22:00 +11°C° 0,4 mm 3 m/s 747 mmHg 79%
    23:00 +11°C° 0,4 mm 4 m/s 747 mmHg 83%

    Demain, 25 Avril, Mercredi

    Heure Température Précipitation Vent Pression Humidité
    00:00 +9°C° 0,4 mm 5 m/s 747 mmHg 88%
    01:00 +10°C° 0,1 mm 4 m/s 747 mmHg 87%
    02:00 +10°C° 0,1 mm 4 m/s 746 mmHg 87%
    03:00 +10°C° 0,1 mm 4 m/s 746 mmHg 87%
    04:00 +10°C° 0 mm 3 m/s 746 mmHg 88%
    05:00 +10°C° 0 mm 3 m/s 746 mmHg 90%
    06:00 +9°C° 0 mm 2 m/s 746 mmHg 91%
    07:00 +12°C° 0 mm 2 m/s 746 mmHg 87%
    08:00 +13°C° 0 mm 2 m/s 746 mmHg 84%
    09:00 +13°C° 0 mm 3 m/s 746 mmHg 81%
    10:00 +14°C° 0 mm 3 m/s 746 mmHg 76%
    11:00 +15°C° 0 mm 4 m/s 747 mmHg 71%
    12:00 +18°C° 0 mm 4 m/s 747 mmHg 67%
    13:00 +18°C° 0,1 mm 4 m/s 747 mmHg 64%
    14:00 +18°C° 0,1 mm 4 m/s 746 mmHg 62%
    15:00 +19°C° 0,1 mm 4 m/s 746 mmHg 60%
    16:00 +19°C° 0 mm 4 m/s 746 mmHg 60%
    17:00 +19°C° 0 mm 4 m/s 746 mmHg 59%
    18:00 +19°C° 0 mm 3 m/s 746 mmHg 59%
    19:00 +17°C° 0 mm 3 m/s 747 mmHg 64%
    20:00 +16°C° 0 mm 3 m/s 747 mmHg 68%
    21:00 +15°C° 0 mm 2 m/s 747 mmHg 72%
    22:00 +13°C° 0,1 mm 3 m/s 747 mmHg 73%
    23:00 +13°C° 0,1 mm 3 m/s 747 mmHg 73%

    Après-demain, 26 Avril, Jeudi

    Heure Température Précipitation Vent Pression Humidité
    00:00 +13°C° 0,1 mm 3 m/s 747 mmHg 74%
    01:00 +13°C° 0 mm 3 m/s 747 mmHg 75%
    02:00 +12°C° 0 mm 4 m/s 747 mmHg 76%
    03:00 +12°C° 0 mm 4 m/s 747 mmHg 77%
    04:00 +12°C° 0 mm 4 m/s 747 mmHg 78%
    05:00 +12°C° 0 mm 4 m/s 747 mmHg 79%
    06:00 +12°C° 0 mm 3 m/s 747 mmHg 80%
    07:00 +14°C° 0 mm 4 m/s 747 mmHg 75%
    08:00 +16°C° 0 mm 5 m/s 747 mmHg 70%
    09:00 +19°C° 0 mm 6 m/s 747 mmHg 65%
    10:00 +21°C° 0,1 mm 7 m/s 746 mmHg 60%
    11:00 +22°C° 0,1 mm 8 m/s 746 mmHg 55%
    12:00 +24°C° 0,1 mm 9 m/s 746 mmHg 50%
    13:00 +26°C° 0 mm 9 m/s 746 mmHg 49%
    14:00 +26°C° 0 mm 9 m/s 746 mmHg 47%
    15:00 +27°C° 0 mm 9 m/s 746 mmHg 45%
    16:00 +26°C° 0 mm 8 m/s 746 mmHg 49%
    17:00 +24°C° 0 mm 6 m/s 746 mmHg 53%
    18:00 +25°C° 0 mm 5 m/s 745 mmHg 57%
    19:00 +22°C° 0,1 mm 4 m/s 746 mmHg 61%
    20:00 +20°C° 0,1 mm 4 m/s 746 mmHg 66%
    21:00 +19°C° 0,1 mm 3 m/s 747 mmHg 71%
    22:00 +18°C° 0 mm 2 m/s 747 mmHg 74%
    23:00 +17°C° 0 mm 2 m/s 747 mmHg 77%

    27 Avril, Vendredi

    Heure Température Précipitation Vent Pression Humidité
    00:00 +16°C° 0 mm 1 m/s 748 mmHg 80%
    01:00 +16°C° 0 mm 1 m/s 748 mmHg 81%
    02:00 +16°C° 0 mm 1 m/s 748 mmHg 82%
    03:00 +15°C° 0 mm 1 m/s 748 mmHg 83%
    04:00 +15°C° 0 mm 1 m/s 748 mmHg 84%
    05:00 +15°C° 0 mm 1 m/s 748 mmHg 85%
    06:00 +15°C° 0 mm 2 m/s 748 mmHg 86%
    07:00 +17°C° 0 mm 2 m/s 748 mmHg 80%
    08:00 +19°C° 0 mm 3 m/s 748 mmHg 74%
    09:00 +21°C° 0 mm 4 m/s 748 mmHg 69%
    10:00 +22°C° 0,4 mm 5 m/s 748 mmHg 63%
    11:00 +24°C° 0,4 mm 6 m/s 748 mmHg 56%
    12:00 +26°C° 0,4 mm 7 m/s 748 mmHg 50%
    13:00 +26°C° 0,2 mm 7 m/s 748 mmHg 50%
    14:00 +26°C° 0,2 mm 7 m/s 748 mmHg 49%
    15:00 +26°C° 0,2 mm 6 m/s 748 mmHg 49%
    16:00 +24°C° 0,3 mm 6 m/s 748 mmHg 55%
    17:00 +22°C° 0,3 mm 5 m/s 748 mmHg 61%
    18:00 +21°C° 0,3 mm 5 m/s 748 mmHg 67%
    19:00 +19°C° 0 mm 4 m/s 749 mmHg 71%
    20:00 +18°C° 0 mm 3 m/s 749 mmHg 75%
    21:00 +16°C° 0 mm 2 m/s 750 mmHg 80%
    22:00 +16°C° 0 mm 2 m/s 750 mmHg 81%
    23:00 +15°C° 0 mm 2 m/s 751 mmHg 83%

    28 Avril, Samedi

    Heure Température Précipitation Vent Pression Humidité
    00:00 +14°C° 0 mm 2 m/s 751 mmHg 84%
    01:00 +14°C° 0 mm 2 m/s 751 mmHg 84%
    02:00 +12°C° 0 mm 3 m/s 752 mmHg 84%
    03:00 +11°C° 0 mm 3 m/s 752 mmHg 84%
    04:00 +11°C° 0 mm 3 m/s 752 mmHg 83%
    05:00 +11°C° 0 mm 3 m/s 753 mmHg 82%
    06:00 +10°C° 0 mm 2 m/s 753 mmHg 80%
    07:00 +12°C° 0 mm 3 m/s 753 mmHg 72%
    08:00 +13°C° 0 mm 3 m/s 754 mmHg 63%
    09:00 +16°C° 0 mm 3 m/s 754 mmHg 55%
    10:00 +17°C° 0 mm 3 m/s 754 mmHg 49%
    11:00 +18°C° 0 mm 3 m/s 754 mmHg 44%
    12:00 +19°C° 0 mm 2 m/s 754 mmHg 38%
    13:00 +20°C° 0 mm 2 m/s 754 mmHg 37%
    14:00 +20°C° 0 mm 2 m/s 754 mmHg 35%
    15:00 +21°C° 0 mm 2 m/s 754 mmHg 33%
    16:00 +20°C° 0 mm 2 m/s 754 mmHg 36%
    17:00 +20°C° 0 mm 2 m/s 754 mmHg 38%
    18:00 +20°C° 0 mm 2 m/s 753 mmHg 41%
    19:00 +18°C° 0 mm 2 m/s 754 mmHg 45%
    20:00 +17°C° 0 mm 2 m/s 754 mmHg 48%
    21:00 +15°C° 0 mm 2 m/s 754 mmHg 52%
    22:00 +14°C° 0 mm 2 m/s 754 mmHg 54%
    23:00 +14°C° 0 mm 2 m/s 754 mmHg 57%

    29 Avril, Dimanche

    Heure Température Précipitation Vent Pression Humidité
    00:00 +13°C° 0 mm 2 m/s 754 mmHg 59%
    01:00 +13°C° 0 mm 2 m/s 754 mmHg 61%
    02:00 +12°C° 0 mm 2 m/s 754 mmHg 62%
    03:00 +12°C° 0 mm 2 m/s 754 mmHg 64%
    04:00 +10°C° 0 mm 2 m/s 754 mmHg 66%
    05:00 +10°C° 0 mm 3 m/s 754 mmHg 68%
    06:00 +10°C° 0 mm 3 m/s 754 mmHg 69%
    07:00 +12°C° 0 mm 3 m/s 754 mmHg 64%
    08:00 +14°C° 0 mm 3 m/s 753 mmHg 59%
    09:00 +17°C° 0 mm 4 m/s 753 mmHg 53%
    10:00 +19°C° 0 mm 4 m/s 753 mmHg 48%
    11:00 +20°C° 0 mm 4 m/s 753 mmHg 43%
    12:00 +22°C° 0 mm 3 m/s 753 mmHg 38%
    13:00 +22°C° 0 mm 3 m/s 752 mmHg 36%
    14:00 +24°C° 0 mm 3 m/s 752 mmHg 35%
    15:00 +25°C° 0 mm 2 m/s 751 mmHg 33%
    16:00 +25°C° 0 mm 2 m/s 751 mmHg 35%
    17:00 +24°C° 0 mm 1 m/s 751 mmHg 38%
    18:00 +24°C° 0 mm 1 m/s 751 mmHg 40%
    19:00 +22°C° 0 mm 1 m/s 751 mmHg 43%
    20:00 +19°C° 0 mm 2 m/s 751 mmHg 46%
    21:00 +18°C° 0 mm 2 m/s 751 mmHg 49%
    22:00 +17°C° 0 mm 2 m/s 751 mmHg 51%
    23:00 +16°C° 0 mm 2 m/s 751 mmHg 53%
    Voir plus